Location: Kershaw
(34.5481°N, 80.5823°W)
Time: 02:15:07
(UTC+00:00)

Altair - Pass Details

Date: 11 October 2022
Orbit: 1501 x 1682 km, 47.2° (Epoch: 01 December)

Event Time Altitude Azimuth Distance (km) Brightness Sun altitude
Rises 11:13:09 0° 289° (WNW) 4,785 - -3.2°
Exits shadow 11:13:52 - 291° (WNW) 4,577 9.3 -3.0°
Reaches altitude 10° 11:16:32 10° 297° (WNW) 3,826 9.0 -2.5°
Maximum altitude 11:25:35 40° 5° (N) 2,282 8.5 -0.7°
Drops below altitude 10° 11:34:53 10° 72° (ENE) 3,932 10.9 1.2°
Sets 11:38:25 0° 80° (E) 4,929 11.8 2.0°
